Probability
0 0 0 0 0 0 0 0 0 0 0 0 0 0 0 0 0 0 1 0 0 0 0 0 0 0 0 0 0 0 0 0 0 0 0 0 0 0 0 0 0 0 0
0 0 0 0 0 0 0 0 0 0 0 0 0 0 0 0 0 0 1 0 0 0 0 0 0 0 0 0 0 0 0 0 0 0 0 0 0 0 0 0 0 0 0
0 0 0 0 0 0 0 0 0 0 0 0 0 0 0 0 0 1 1 0 0 0 0 1 1 1 0 0 0 0 0 0 0 0 0 0 0 0 0 0 0 0 0
0 0 0 0 0 0 0 0 0 0 0 0 0 0 0 0 0 1 1 1 1 1 2 3 3 2 2 1 0 0 0 0 0 0 0 0 0 0 0 0 0 0 0
0 0 0 0 0 0 0 0 0 0 0 0 0 0 0 0 0 1 1 1 1 2 3 3 3 3 3 2 1 0 0 0 0 0 0 0 0 0 0 0 0 0 0
0 0 0 0 0 0 0 0 0 0 0 0 0 0 0 0 0 0 0 0 1 2 2 2 1 1 2 2 1 0 0 1 0 0 1 1 0 0 0 0 0 0 0
0 0 0 0 0 0 0 0 0 0 0 0 0 0 0 0 0 0 0 0 0 1 1 2 2 1 0 0 0 0 1 2 1 0 1 2 1 0 0 0 0 0 0
0 0 0 0 0 0 0 0 0 0 0 0 0 0 0 0 0 0 0 0 0 0 0 1 2 1 0 0 0 1 2 2 1 0 1 2 2 1 0 0 0 0 0
0 0 0 0 0 0 0 0 0 0 0 0 0 0 0 0 0 0 0 0 0 0 0 0 1 1 0 0 0 0 1 1 0 0 0 1 2 2 0 0 0 0 0
0 0 0 0 0 0 0 0 0 0 0 0 0 0 0 0 0 0 0 0 0 0 0 0 0 0 0 0 0 1 1 0 0 0 0 1 1 1 0 0 0 0 0
0 0 0 0 0 0 0 0 0 0 0 0 0 0 0 0 0 0 0 0 0 0 0 0 0 0 0 0 0 1 1 0 0 0 0 0 0 0 0 0 0 0 0
0 0 0 0 0 0 0 0 0 0 0 0 0 0 0 0 0 0 0 0 0 0 0 0 0 0 0 0 0 1 1 0 0 0 0 0 0 0 0 0 0 0 0
0 0 0 0 0 0 0 0 0 0 0 0 0 0 0 0 0 0 0 0 0 0 0 0 0 0 0 0 0 0 0 0 0 1 1 0 0 0 0 0 0 0 0
0 0 0 0 0 0 0 0 0 0 0 0 0 0 0 0 0 0 0 0 0 0 0 0 0 0 0 0 0 0 1 1 2 2 2 1 0 0 0 0 0 0 1
0 0 0 0 0 0 0 0 0 0 0 0 0 0 0 0 0 0 0 0 0 0 0 0 0 1 0 0 0 0 1 2 3 3 2 1 0 1 1 1 1 1 1
0 0 0 0 0 0 0 0 0 0 0 0 0 0 0 0 0 0 0 0 0 0 0 0 0 0 0 0 0 0 1 3 3 2 2 1 1 2 2 2 2 1 1
0 0 0 0 0 0 0 0 0 0 0 0 0 0 0 0 0 0 0 0 0 0 0 0 0 0 0 0 0 1 2 3 2 1 1 1 1 1 1 1 2 2 1
0 0 0 0 0 0 0 0 0 0 0 0 0 0 0 0 0 0 0 0 0 0 0 0 0 0 0 0 0 1 2 2 1 1 0 0 0 0 0 0 1 2 1
0 0 0 0 0 0 0 0 0 0 0 0 0 0 0 0 0 0 0 0 0 0 0 0 0 0 0 0 0 1 2 1 1 1 1 0 0 0 0 0 0 1 2
0 0 0 0 0 0 0 0 0 0 0 0 0 0 0 0 0 0 0 0 0 0 0 0 0 0 0 0 0 1 1 1 0 1 2 1 0 0 0 0 0 1 2
0 0 0 0 0 0 0 0 0 0 0 0 0 0 0 0 0 0 0 0 0 0 0 0 0 0 0 0 0 0 0 0 0 0 1 2 2 2 1 0 0 0 1
0 0 0 0 0 0 1 0 0 0 0 0 0 0 0 0 0 0 0 0 0 0 0 0 0 0 0 0 0 0 0 0 0 0 1 2 3 3 2 1 0 0 0
0 0 0 0 0 0 0 0 0 0 0 0 0 0 0 0 0 0 0 0 0 0 0 0 0 0 0 0 0 0 0 0 0 0 0 2 3 3 3 1 0 0 0
0 0 0 0 0 0 0 0 0 0 0 0 0 0 0 0 0 0 0 0 0 0 0 0 0 0 0 0 0 0 0 0 0 0 0 1 2 2 3 1 1 1 0
0 0 0 0 0 0 0 0 0 0 0 0 0 0 0 0 0 0 0 0 0 0 0 0 0 0 0 0 0 0 0 0 0 0 0 1 1 1 1 1 2 2 1
0 0 0 0 0 0 0 0 0 0 0 0 0 0 0 0 0 0 0 0 0 0 0 0 0 0 0 0 0 0 0 0 0 0 0 1 1 1 0 1 2 3 3
Wind_Speed
7 8 9 8 8 8 8 7 7 7 7 6 6 6 5 4 3 3 2 2 1 1 0 0 1 1 1 2 2 2 3 3 3 3 3 3 3 3 3 3 4 1 4
9 9 9 8 8 8 8 7 7 7 7 6 6 5 4 3 3 2 1 1 1 0 0 0 1 2 2 2 2 2 2 3 3 4 3 2 1 2 3 3 5 5 4
9 9 9 8 8 8 8 7 7 7 6 6 5 4 4 3 2 1 1 0 1 1 1 1 1 2 2 3 3 3 3 3 4 4 6 3 2 2 3 3 3 4 4
9 8 9 9 8 7 7 7 7 7 6 5 5 4 3 2 2 1 1 1 2 2 2 2 3 3 3 3 4 3 3 3 4 6 5 2 2 4 3 3 3 3 4
9 8 10 9 8 8 7 7 7 6 6 5 4 3 3 2 2 2 3 3 3 3 3 4 4 4 4 4 4 4 4 4 5 7 3 3 3 3 3 3 3 3 3
9 9 10 8 8 7 7 7 6 6 5 4 3 3 2 2 2 3 3 3 4 4 4 4 4 4 4 4 4 4 5 5 7 4 3 3 2 2 3 3 3 3 3
9 8 9 8 7 7 6 6 6 5 4 4 3 3 3 3 3 3 3 4 4 4 5 5 5 5 4 5 5 5 5 5 7 4 3 3 2 3 3 2 3 3 3
9 8 9 9 6 6 6 5 5 4 4 4 3 3 3 4 4 4 4 4 4 4 5 5 5 5 5 5 5 5 6 7 6 5 4 3 2 2 3 3 2 3 3
8 7 7 8 8 7 5 5 4 4 4 3 3 3 3 4 4 4 4 4 4 4 5 5 5 5 5 5 5 5 5 5 7 5 5 2 2 2 3 2 2 3 2
7 7 6 6 5 5 6 6 4 4 4 3 4 4 3 1 1 2 3 3 4 5 5 5 5 5 5 5 5 5 5 7 7 5 4 0 2 3 3 2 2 2 2
6 6 6 5 4 3 3 4 3 3 2 1 2 2 2 3 3 1 5 5 5 5 5 5 4 4 6 5 5 5 6 5 4 4 3 3 2 3 3 2 2 2 1
8 7 5 5 4 3 2 2 1 1 1 1 2 2 2 3 3 4 3 2 3 4 3 2 4 6 7 4 4 7 4 4 4 3 0 2 3 3 3 2 2 1 1
7 6 5 5 4 2 2 1 1 1 1 1 2 2 2 3 2 3 2 1 2 4 4 2 5 4 4 2 3 4 3 3 3 3 1 2 3 3 2 2 2 1 1
7 6 5 4 3 3 1 1 0 0 1 1 2 3 2 2 3 3 3 4 3 3 3 4 4 4 4 4 4 4 3 3 2 2 1 2 2 3 3 2 2 2 2
7 6 5 4 3 2 2 0 1 1 1 1 2 3 3 3 4 4 3 3 4 4 4 4 4 4 4 3 4 4 3 3 3 2 1 3 1 2 2 2 2 3 3
7 7 6 5 4 3 2 1 0 1 0 1 1 3 3 3 3 4 4 3 4 4 4 5 4 4 3 3 3 3 3 3 3 2 2 2 3 0 1 2 2 3 3
7 7 6 5 4 3 2 1 0 1 1 1 1 3 3 3 4 4 4 4 4 4 5 4 5 4 3 3 3 3 3 3 3 3 2 2 2 4 2 1 2 2 3
7 7 6 5 5 4 2 1 0 0 1 1 1 2 4 4 5 4 4 4 4 4 4 3 4 3 3 3 3 2 2 1 3 3 2 2 2 1 4 4 2 2 3
7 7 7 6 5 4 3 2 1 0 0 1 1 2 3 4 5 4 4 4 4 4 4 4 3 4 3 3 3 2 2 2 2 2 2 2 2 2 2 5 4 2 3
7 7 6 6 5 4 3 2 1 1 0 0 1 2 3 3 4 4 3 4 4 3 3 4 3 3 3 3 3 2 1 1 1 1 2 1 2 2 2 2 4 4 4
8 7 7 7 6 5 3 2 1 1 1 0 1 1 2 3 4 4 4 4 4 4 4 4 3 3 2 2 2 2 1 1 0 0 1 1 1 1 2 2 2 2 4
8 7 7 7 6 5 3 2 1 0 1 1 1 1 2 3 3 3 4 4 3 3 4 4 3 3 2 2 3 2 2 2 2 0 0 1 1 1 2 2 2 2 2
8 8 6 6 6 6 5 2 2 1 2 1 1 0 2 2 3 4 4 4 4 4 3 4 3 3 2 2 2 3 2 1 1 1 0 0 0 0 1 1 1 2 3
7 6 7 6 6 6 6 4 3 2 1 1 1 1 1 1 2 3 4 4 4 3 3 3 3 2 3 2 1 2 3 2 2 1 2 1 1 0 0 1 1 1 2
6 6 6 6 6 6 5 4 4 3 1 1 1 1 2 1 2 3 4 4 4 3 3 3 3 3 2 3 2 1 1 1 3 2 1 1 1 1 0 0 0 1 1
5 5 6 6 6 6 6 5 5 3 3 2 2 2 2 1 2 2 3 3 3 3 3 3 3 2 2 2 2 2 2 2 1 1 1 1 1 1 1 0 0 0 1
Wind_Direction
140 135 130 141 135 127 123 119 116 114 115 114 115 115 117 121 121 120 130 145 150 150 148 56 26 24 18 17 10 4 4 2 1 2 4 5 11 10 13 3 320 277 56
131 130 129 136 129 124 120 116 110 107 105 104 103 106 106 106 102 101 102 138 191 243 256 354 357 346 344 341 342 341 344 345 346 349 335 263 131 9 3 3 344 5 15
128 129 133 128 124 121 119 115 110 104 100 97 95 93 92 90 85 79 68 3 314 306 308 305 308 306 312 315 318 322 331 335 333 326 288 271 135 94 352 354 350 353 357
127 129 122 122 120 116 113 108 105 103 99 94 87 79 71 62 44 14 330 314 317 317 313 307 299 294 295 303 307 311 316 319 318 298 273 328 337 73 354 346 342 347 353
126 124 116 122 119 116 112 107 102 97 90 83 77 70 60 41 20 344 322 316 315 312 303 299 296 296 298 300 298 303 308 304 296 275 303 329 339 46 348 340 340 343 350
128 125 119 122 117 114 109 102 96 92 85 77 68 58 41 20 3 347 335 326 313 306 306 300 295 294 300 302 301 302 304 306 279 282 300 300 334 44 329 331 338 339 345
132 127 124 123 119 113 108 104 98 91 84 73 65 50 32 12 357 350 343 334 325 314 310 308 296 289 291 296 298 297 298 294 280 287 280 287 357 11 318 316 327 332 334
134 132 128 129 122 114 112 107 100 91 81 68 53 40 26 12 358 347 338 333 325 319 317 310 301 290 281 282 288 291 292 290 272 276 274 280 29 322 297 299 310 326 319
138 135 135 136 135 128 113 104 99 88 71 56 44 33 28 15 1 348 336 329 319 318 317 315 307 296 287 281 277 278 283 281 280 270 269 268 72 293 286 291 301 316 313
147 145 141 136 132 132 129 115 95 81 67 57 48 37 22 352 341 340 302 357 331 324 315 311 311 304 293 282 275 271 269 260 261 269 263 103 66 288 281 272 288 309 314
156 157 152 147 137 128 115 113 129 119 94 146 124 91 287 317 341 300 28 10 348 338 328 319 312 303 282 237 234 252 251 258 267 270 270 48 327 283 277 256 254 290 311
166 167 165 162 154 148 129 124 117 104 100 351 3 0 335 350 345 333 81 349 331 320 285 306 288 262 257 252 203 217 244 248 260 259 201 70 287 276 267 245 230 257 252
165 166 173 173 165 160 152 128 54 25 25 360 355 353 334 330 324 320 322 271 287 288 299 293 262 276 283 284 283 261 266 268 267 270 99 84 282 267 247 228 222 228 217
171 174 176 183 177 173 159 133 225 343 350 359 347 342 338 336 328 343 322 332 322 321 325 309 304 300 295 287 276 274 262 261 269 273 87 77 305 269 238 232 212 209 208
177 182 179 183 187 173 148 203 251 358 342 6 5 331 339 330 331 339 323 327 316 322 312 306 301 313 302 296 291 288 285 274 268 273 149 106 342 305 247 229 207 201 198
183 183 175 182 181 195 189 206 350 347 341 332 352 339 340 343 337 333 329 329 325 322 320 308 305 304 295 293 287 290 288 287 282 271 265 175 165 274 280 228 196 188 188
186 185 180 184 186 194 211 204 225 290 320 349 359 343 351 348 336 336 330 331 331 321 311 308 306 297 291 283 271 274 277 285 285 277 263 262 202 166 166 197 184 184 180
187 186 178 181 188 184 190 211 207 292 336 347 354 347 346 347 345 339 331 334 335 325 316 310 300 293 285 286 285 280 277 267 275 286 258 236 245 223 159 145 156 175 180
192 189 184 182 185 176 176 188 188 190 326 337 349 358 346 348 340 338 337 334 335 329 325 318 319 310 303 303 288 268 275 281 296 288 279 266 243 233 204 141 155 155 164
194 193 183 176 183 171 176 182 163 194 211 336 352 5 348 341 343 338 328 334 336 329 330 321 317 306 301 293 291 299 288 282 278 298 305 290 256 232 218 183 175 154 143
194 193 184 184 178 177 174 192 197 200 219 242 324 350 337 338 340 339 326 339 335 335 329 322 320 305 294 297 274 259 222 207 277 297 298 291 250 237 210 198 203 173 156
194 193 191 189 183 181 178 191 203 270 280 340 308 314 332 337 336 331 333 328 334 327 324 326 321 308 309 294 285 267 235 180 160 121 240 265 266 207 199 196 190 179 189
195 195 194 189 181 179 174 173 169 176 220 200 224 294 331 329 333 331 331 326 328 324 333 325 316 309 305 304 309 300 286 281 145 149 66 223 237 219 202 213 223 201 186
193 193 195 187 184 176 178 192 205 233 275 319 304 312 300 306 326 327 323 319 320 326 326 319 329 305 296 294 283 291 310 335 290 182 158 145 114 133 173 211 235 218 201
189 189 192 184 184 179 186 189 219 240 278 292 279 279 287 308 316 321 320 318 318 318 326 327 324 310 296 299 300 290 277 271 273 279 198 171 158 131 123 188 237 246 221
185 185 187 187 186 182 193 201 219 234 249 262 267 285 283 290 305 330 321 315 313 319 321 320 315 309 300 300 294 292 292 287 295 280 252 205 180 135 133 125 259 270 247